This is the latest recevied weather packets stored in our database for station/object EA1CUE-WX. If no packets are shown the sender has not sent any weather packets the latest 10 day(s).
| Time | Temp. | Humidity | Pressure | Rain* | Wind** | Luminosity | Snow |
|---|---|---|---|---|---|---|---|
| 1787499229 | 26.11° C | 32% | 1012.4 hPa | 0 mm | - | - | - |
| 1787498929 | 25.56° C | 33% | 1012.4 hPa | 0 mm | - | - | - |
| 1787498629 | 25.56° C | 32% | 1012.5 hPa | 0 mm | - | - | - |
| 1787498329 | 25.56° C | 32% | 1012.4 hPa | 0 mm | - | - | - |
| 1787498029 | 25.56° C | 31% | 1012.4 hPa | 0 mm | - | - | - |
| 1787497730 | 25.56° C | 32% | 1012.5 hPa | 0 mm | - | - | - |
| 1787497430 | 25.56° C | 31% | 1012.5 hPa | 0 mm | - | - | - |
| 1787497129 | 25.56° C | 32% | 1012.5 hPa | 0 mm | - | - | - |
| 1787496829 | 25.56° C | 32% | 1012.6 hPa | 0 mm | - | - | - |
| 1787496529 | 25.56° C | 32% | 1012.7 hPa | 0 mm | - | - | - |
| 1787496229 | 25.56° C | 32% | 1012.6 hPa | 0 mm | - | - | - |
| 1787495929 | 26.11° C | 32% | 1012.8 hPa | 0 mm | - | - | - |
| 1787495629 | 26.11° C | 31% | 1012.6 hPa | 0 mm | - | - | - |
| 1787495329 | 26.11° C | 31% | 1012.4 hPa | 0 mm | - | - | - |
| 1787495029 | 26.67° C | 32% | 1012.4 hPa | 0 mm | - | - | - |
| 1787494729 | 26.11° C | 33% | 1012.4 hPa | 0 mm | - | - | - |
| 1787494429 | 25.56° C | 33% | 1012.6 hPa | 0 mm | - | - | - |
| 1787494129 | 25.56° C | 33% | 1012.5 hPa | 0 mm | - | - | - |
| 1787493829 | 25.56° C | 34% | 1012.6 hPa | 0 mm | - | - | - |
| 1787493529 | 25° C | 34% | 1012.5 hPa | 0 mm | - | - | - |
| 1787493229 | 24.44° C | 34% | 1012.5 hPa | 0 mm | - | - | - |
| 1787492929 | 24.44° C | 35% | 1012.6 hPa | 0 mm | - | - | - |
| 1787492629 | 25° C | 35% | 1012.6 hPa | 0 mm | - | - | - |
| 1787492329 | 24.44° C | 36% | 1012.7 hPa | 0 mm | - | - | - |
| 1787492029 | 24.44° C | 36% | 1012.7 hPa | 0 mm | - | - | - |
* Rain latest hour (hover to see other rain measurements)
** Current wind speed in m/s (hover to see current wind gust speed)